Погода в Мензелинске

Погода в Мензелинске : погода сейчас, прогноз погоды и архив. Всё, что Вы хотите узнать о погоде в Мензелинске!

Поиск расширенной информации на нашем сайте:

Другие новости

Новости СМИ2

Главная страница сайта

Новости сайта

03.07.2017

Напоминаем, что на нашем специализированном сайте Метеоцентр.Азия вы можете получить высокодетализированные автоматические прогнозы погоды по пунктам России, СНГ и мира в авиационном формате (включающие направление и скорость ветра, видимость, явления погоды, количество и форму облачности, нижнюю и верхнюю границу облачности).


Погода в Мензелинске - сегодня

Время (UTC), дата Ветер
(°,м/с) 
Видим.   Явления Облачность Т
(°С)
Тd
(°С)
f(%) Тe
(°С)
Pmin
(гПа)
dP
(гПа)
Po
(мм)
O2
(г/м3)
Тmin Tmax R s Состояние
почвы
06 17.02.18 240 (ЮЗ) 10 км    3/0 верхняя 
[Ci fib]
-13.6 -16.3 80 -16  1041.5  -0.2  770  328  -17.1         
09 17.02.18 270 (З) 10 км    3/0 верхняя 
[Cc]
-9.5 -13 76 -9  1040.6  -0.6  769  322           
12 17.02.18 240 (ЮЗ) 10 км    4/0 верхняя 
[Cc]
-6.5 -12.5 62 -6  1039.4  -1  769  318           
18 17.02.18 240 (ЮЗ) 10 км    ясно 
-10.8 -13.6 80 -13  1038  -1.1  767  323           
21 17.02.18 240 (ЮЗ) 10 км    ясно 
-13.3 -15.8 81 -18  1037.6  -0.5  767  326           
00 18.02.18 280 (З) 10 км    10/0 средняя 
[Ac As]
-12.8 -15.4 81 -13  1037.2  -0.4  767  325           
06 18.02.18 230 (ЮЗ) 10 км    10/0 средняя, верхняя 
[Ac trans|Ci fib]
-10.7 -14.4 74 -13  1036.3  0.1  766  323           
09 18.02.18 200 (Ю) 10 км    8/0 средняя 
[Ac trans]
-6.6 -11.9 66 -10  1035.6  -0.4  766  317           
12 18.02.18 180 (Ю) 10 км    8/0 средняя, верхняя 
[Ac trans|Ci fib]
-6.1 -12 63 -8  1034.4  -1.2  765  316           
18 18.02.18 180 (Ю) 10 км    3/0 верхняя 
[Ci fib]
-7.2 -13.5 61 -11  1031.8  -1.2  763  317           
21 18.02.18 180 (Ю) 10 км    10/0 средняя 
[Ac und]
-7.5 -13.1 64 -11  1030.2  -1.5  762  317           
00 19.02.18 170 (Ю) 4000 м  слаб. снег  10/0 средняя 
[As op]
-7.6 -11.3 75 -11  1028.4  -1.8  760  316           
06 19.02.18 180 (Ю) 6{10}  4000 м  слаб. снег{ливн. осадки}  10/0 средняя 
[As op]
-8.1 -11.5 76 -13  1025.8  -0.9  758  316           
09 19.02.18 180 (Ю) 1000 м  снег  10/0 средняя 
[As op]
-7.6 -10.8 78 -11  1025.4  -0.4  758  315           
12 19.02.18 180 (Ю) 4000 м  слаб. снег  10/5 600 м средняя 
[Sc|As trans]
-6.9 -10.2 77 -11  1024.3  -1.1  757  314           
18 19.02.18 200 (Ю) 10 км  в посл. час ливневой дождь{снег}  10/6 600 м кучево-дожд., средняя 
[Cb cap|As op]
-7.9 -11 78 -11  1022.3  -1  756  315           
21 19.02.18 200 (Ю) 4000 м  слаб. снег  10/10 600 м 
[Sc]
-8 -10.3 83 -10  1020.7  -1.5  755  314           
00 20.02.18 160 (Ю) 4000 м  слаб. снег  10/10 600 м 
[Sc]
-8.2 -10.3 85 -8  1019.5  -1.2  754  314           
06 20.02.18 250 (З) 4000 м  слаб. снег  10/0 средняя 
[Ac As]
-9.2 -11.6 83 -11  1017.5  -0.5  752  315  -11.6         
09 20.02.18 210 (ЮЗ) 10 км  {снег}  10/0 средняя, верхняя 
[Ac trans|Ci fib]
-6.7 -11.8 67 -6  1016.7  -0.7  752  312           
12 20.02.18 250 (З) 10 км  {снег}  10/0 средняя, верхняя 
[Ac trans|Ci fib]
-8.4 -13.1 69 -10  1016.2  -0.5  751  314           
18 20.02.18 250 (З) 10 км    8/4 600 м средняя 
[Sc|Ac trans]
-12.2 -14.7 82 -14  1015  -0.7  750  318           
21 20.02.18 250 (З) 10 км    10/10 600 м 
[Sc]
-10.8 -13.2 82 -13  1014.6  -0.4  750  316           
00 21.02.18 250 (З) 4000 м  слаб. снег  10/10 600 м 
[Sc]
-10.2 -12.5 83 -13  1014.2  -0.3  750  315           
06 21.02.18 230 (ЮЗ) 10 км  {снег}  8/0 средняя, верхняя 
[Ac lent|Ci fib]
-8.7 -11 83 -12  1014.6  0.8  750  313           
Время (UTC), дата Ветер
(°,м/с) 
Видим.   Явления Облачность Т
(°С)
Тd
(°С)
f(%) Тe
(°С)
Pmin
(гПа)
dP
(гПа)
Po
(мм)
O2
(г/м3)
Тmin Tmax R s Состояние
почвы

Для получения пояснительной информации подведите курсор к названию столбца.

ПОГОДА в Мензелинске - архив

Всё, что Вы хотите узнать о погоде в Мензелинске - удобно и подробно!

Выберите нужную дату (начиная с 1 января 2015* года) и нажмите кнопку "Найти".
Будут отображены архивные сводки погоды по пункту Мензелинск, начиная с указанной даты.


Отображать данные в формате CSV (для использования в таблицах Excel)


Внимание! Наш архив погоды предназначен исключительно для личного некоммерческого использования в познавательных целях. Если Вам необходимы официальные справки о состоянии погоды (для производственных, юридических, коммерческих и т.п. целей), обращайтесь в органы Росгидромета.

*Примечание: данная дата относится к архиву по метеостанциям СССР (Россия, СНГ, Балтия).
Архив по метеостанциям Зарубежной Европы и Азии (кроме Китая) хранится 10 дней, по другим регионам земного шара (Китай, Африка, Америка, Австралия, Океания) - 1 день.

Мензелинск - район местоположения метеостанции


Название, широта, долгота, высота метеостанции:
Мензелинск 55.7°ш. 53.1°д. 112 м над ур. моря [Российская Федерация]

Дополнительная информация

В oтличие oт бoльшинства пoгoдных сайтoв мы публикуем пoдрoбную метеoинфoрмацию в детальнoм прoфессиoнальнoм фoрмате.

Характеристики температуры и влажнoсти вoздуха измеряются на высoте 2 м в тени вдали oт зданий и деревьев.
Скoрoсть ветра измеряется на высoте 10 м (на урoвне рoста челoвека скoрoсть ветра ниже в 1.5-2 раза). Если метеoстанция нахoдится в гoрoде или в лесу, тo скoрoсть ветра занижена на 2-4 м/с пo сравнению с oткрытым местoм. Скoрoсть ветра над акватoриями крупных рек и oзёр, а также на вершинах хoлмoв на 2-5 м/с выше, чем в oбычных услoвиях.
Атмoсфернoе давление в разных тoчках местнoсти мoжет значительнo oтличаться oт давления на метеoстанции, в зависимoсти oт услoвий рельефа (при пoдъёме на 10 м давление пoнижается примернo на 1 мм рт.ст.).